ATLAS 5 CENTAUR DEB, 43970

Orbit data source: Space-Track

ATLAS 5 CENTAUR DEB, 43970 is space debris in HEO originally from a launch on Wed, 17 Sep 2014 UTC launched from the Air Force Eastern Test Range (AFETR). Debris objects in space refer to the collection of defunct objects orbiting the Earth. Examples of debris include non-operational satellites, rocket bodies, and fragments generated from explosions, collisions, or faulty payload assembly.

Loading next visibility...
Identifier
43970, 2014-055Z
Orbit
HEO
Country
Flag of USUS
Related business
Flag of USUnited Launch Alliance/Lockheed Martin (US)
Manufacturer
Unknown
Mission
Spacecraft
Bus & Motor
Unknown
Mass
Unknown
Launch date (UTC)
2014-09-17 (11 years ago)
Launch vehicle
Unknown
Launch site
Air Force Eastern Test Range (AFETR)
Object type
Payload
Rocket body
Debris
Shape & HBR
Unknown shape, 1.1 m
Radar Cross Section
Small (<0.1 m²)

Expand to show TLE details & history
Last TLE update: 1 month ago

TLE from 1 month ago
0 ATLAS 5 CENTAUR DEB
1 43970U 14055Z   25259.54715952 -.00000083  00000-0  00000-0 0  9991
2 43970  20.1242 154.3106 4825414 147.8583 253.7199  1.90355753 48961
Epoch: 2025-09-16T13:07Z
TLE epoch observation values (Epoch: 2025-09-16T13:07:54.582Z)
Latitude
0.00001°
Longitude
-38.41642°
Altitude
29,320.043 km
Speed
2.8 km/s
True Right ascension
10h 17m 11s
True Declination
0° 00' 00"
Sunlit
Object was in daylight at epoch
Visualization orbit readout
Latitude
Unknown
Longitude
Unknown
Altitude
Unknown
Speed
Unknown
Apparent Right ascension
Unknown
Apparent Declination
Unknown
Sunlit
N/A
Visualization observer readout
Local Sidereal Time
08:50:49
Azimuth
Unknown
Elevation
Unknown
Doppler factor
Unknown
Orbital elements
Apogee altitude
34,397.043 km
Perigee altitude
7,853.821 km
Semi-major axis
27,503.569 km
Eccentricity
0.48254
Inclination
20.1242°
RAAN
154.3106°
Arg. of periapsis
147.8583°
True anomaly
212.11379°
Mean anomaly
253.7199°
Eccentric anomaly
231.94859°
Mean motion
0.47584 °/min
Orbital period
756.56 mins
BSTAR
0
Loading maneuver chart data...
Computing Atmospheric mass density...

Documentation

Showing up to 5 results
|